Location: Terra Rouge Observatory
(46.0000°N, 62.7500°W)
Time: 22:25:35
(UTC-03:00)

Amateur Radio Satellites - All Passes

Search period start: 29 May 2017 21:55
Search period end: 30 May 2017 21:55
Location: Terra Rouge Observatory, 46.0000°N, 62.7500°W

Satellite Date Start Highest point End Downlink Frequencies (MHz)
Time Altitude Azimuth
ISS 29 May 21:59:33 22:02:41 38° 345° (NNW) 22:05:48 437.550
EO-88 29 May 22:02:14 22:05:52 70° 74° (ENE) 22:09:33 145.990 - 145.960
M-CUBED/EXP-1 PRIME 29 May 22:03:29 22:06:45 62° 107° (ESE) 22:09:58 437.505
AO-73 29 May 22:03:47 22:07:02 21° 268° (W) 22:10:22 145.935
SO-50 29 May 22:06:46 22:11:10 50° 120° (ESE) 22:15:35 436.795
STRAND 1 29 May 22:18:32 22:22:05 19° 301° (WNW) 22:25:38 437.568
ESTCUBE 1 29 May 22:20:55 22:23:18 14° 59° (ENE) 22:25:41 437.505/2401.250
PRISM 29 May 22:20:59 22:24:11 22° 94° (E) 22:27:21 437.425
ZACube-1 29 May 22:21:22 22:23:27 13° 272° (W) 22:25:32 437.345
Tancredo 1 29 May 22:30:18 22:33:00 27° 356° (N) 22:35:42 437.200
LO-87 29 May 22:34:40 22:37:29 22° 67° (ENE) 22:40:18 145.935 - 145.965
FO-29 29 May 22:41:09 22:47:23 43° 98° (E) 22:54:17 435.910
TIGRISAT 29 May 22:44:47 22:48:59 34° 96° (E) 22:53:14 435.000
DELFI C3 29 May 22:51:43 22:54:59 24° 266° (W) 22:58:16 145.870
VELOX 1 29 May 23:03:23 23:03:46 10° 56° (ENE) 23:04:09 145.980
UNISAT 6 29 May 23:17:19 23:21:58 76° 102° (ESE) 23:26:39 437.425
YUBILEINY 29 May 23:27:07 23:30:41 13° 71° (ENE) 23:34:16 435.215
ISS 29 May 23:36:43 23:39:42 30° 5° (N) 23:42:40 437.550
AIST 2D 29 May 23:42:23 23:44:50 17° 92° (E) 23:47:15 435.315
SO-50 29 May 23:47:57 23:51:51 27° 320° (NW) 23:55:45 436.795
POLYITAN 1 29 May 23:54:31 23:56:42 14° 90° (E) 23:58:53 437.675
ESTCUBE 1 29 May 23:54:58 23:59:30 76° 258° (WSW) 00:04:04 437.505/2401.250
PRISM 29 May 23:55:51 23:59:33 34° 291° (WNW) 00:03:13 437.425
DUCHIFAT 1 29 May 23:56:02 23:57:18 11° 88° (E) 23:58:35 145.980
SPROUT 30 May 00:02:28 00:06:19 35° 69° (ENE) 00:10:12 437.525
QB50P2 30 May 00:02:47 00:05:44 18° 92° (E) 00:08:42 145.880/145.840
Tancredo 1 30 May 00:06:19 00:09:14 38° 16° (NNE) 00:12:08 437.200
LO-87 30 May 00:07:50 00:10:50 25° 265° (W) 00:13:50 145.935 - 145.965
TIGRISAT 30 May 00:21:35 00:25:35 29° 293° (WNW) 00:29:37 435.000
FO-29 30 May 00:26:23 00:32:24 42° 293° (WNW) 00:39:05 435.910
VELOX 1 30 May 00:35:03 00:39:27 78° 74° (ENE) 00:43:52 145.980
EO-79 30 May 00:37:51 00:41:50 37° 98° (E) 00:45:49 145.935-145.965
UKube-1 30 May 00:44:26 00:48:01 26° 66° (ENE) 00:51:37 .
50 SAT 30 May 00:53:43 00:57:08 63° 74° (ENE) 01:00:32 437.505
UNISAT 6 30 May 00:55:33 00:58:06 15° 300° (WNW) 01:00:40 437.425
DX 1 30 May 00:58:54 01:03:06 51° 71° (ENE) 01:07:20 434.975-435.025
RS-15 30 May 01:09:41 01:20:10 37° 105° (ESE) 01:30:49 29.354- 29.394
ISS 30 May 01:13:16 01:16:34 70° 25° (NNE) 01:19:50 437.550
AIST 2D 30 May 01:14:54 01:18:09 33° 289° (WNW) 01:21:22 435.315
YUBILEINY 30 May 01:17:02 01:25:37 65° 92° (E) 01:34:17 435.215
NANOSAT C BR1 30 May 01:20:33 01:24:49 83° 285° (WNW) 01:29:04 145.865
POLYITAN 1 30 May 01:28:39 01:32:53 63° 287° (WNW) 01:37:08 437.675
DUCHIFAT 1 30 May 01:29:14 01:33:29 75° 285° (WNW) 01:37:43 145.980
BUGSAT 1 30 May 01:32:43 01:36:36 37° 98° (E) 01:40:30 437.445
QB50P2 30 May 01:37:40 01:41:46 46° 289° (WNW) 01:45:52 145.880/145.840
SPROUT 30 May 01:38:54 01:42:18 23° 266° (W) 01:45:44 437.525
Tancredo 1 30 May 01:42:04 01:45:02 45° 215° (SW) 01:47:58 437.200
BEESAT 30 May 01:42:43 01:44:51 13° 57° (ENE) 01:47:00 436.000
EO-79 30 May 02:14:02 02:17:24 23° 295° (WNW) 02:20:45 145.935-145.965
VELOX 1 30 May 02:15:00 02:16:26 11° 272° (W) 02:17:53 145.980
Oscar 19 30 May 02:17:26 02:22:18 40° 98° (E) 02:27:07 437.125/150
UKube-1 30 May 02:20:02 02:23:56 33° 263° (W) 02:27:51 .
Gurwin Techsat 1B 30 May 02:24:44 02:29:24 30° 95° (E) 02:34:01 435.225
MOZHAYETS 4 30 May 02:28:20 02:31:28 18° 62° (ENE) 02:34:37
PCSat 30 May 02:29:03 02:33:27 24° 40° (NE) 02:37:49 145.827
DX 1 30 May 02:36:46 02:39:35 17° 268° (W) 02:42:25 434.975-435.025
O/OREOS (USA 219) 30 May 02:42:43 02:44:56 13° 98° (E) 02:47:09 437.305
ITUPSAT 1 30 May 02:46:24 02:50:57 45° 69° (ENE) 02:55:31 437.325
ISS 30 May 02:50:16 02:52:47 20° 223° (SW) 02:55:17 437.550
NANOSAT C BR1 30 May 02:59:23 02:59:48 10° 303° (WNW) 03:00:13 145.865
BUGSAT 1 30 May 03:08:33 03:11:45 22° 295° (WNW) 03:14:59 437.445
YUBILEINY 30 May 03:15:30 03:23:04 32° 295° (WNW) 03:30:44 435.215
BEESAT 30 May 03:17:08 03:21:54 89° 74° (ENE) 03:26:43 436.000
RS-15 30 May 03:19:27 03:31:41 77° 309° (NW) 03:44:09 29.354- 29.394
CUBESAT XI-V 30 May 03:25:13 03:27:36 14° 59° (ENE) 03:29:59 437.345
ITAMSAT 1 30 May 03:28:12 03:31:28 16° 90° (E) 03:34:43 435.822/435.867
AO-85 30 May 03:45:16 03:48:39 24° 116° (ESE) 03:51:55 145.980
Oscar 19 30 May 03:57:03 04:01:28 29° 296° (WNW) 04:05:52 437.125/150
AO-7 30 May 04:01:30 04:09:01 35° 97° (E) 04:16:29 .
MOZHAYETS 4 30 May 04:03:39 04:08:11 58° 260° (W) 04:12:47
Gurwin Techsat 1B 30 May 04:04:28 04:09:26 41° 293° (WNW) 04:14:22 435.225
PCSat 30 May 04:11:58 04:17:25 74° 241° (WSW) 04:22:48 145.827
BEESAT 3 30 May 04:14:10 04:16:46 17° 112° (ESE) 04:19:23 437.485
O/OREOS (USA 219) 30 May 04:19:08 04:23:43 72° 295° (WNW) 04:28:19 437.305
ITUPSAT 1 30 May 04:25:14 04:28:59 23° 267° (W) 04:32:45 437.325
KKS-1 30 May 04:29:27 04:33:38 44° 70° (ENE) 04:37:51 437.445
STARS 30 May 04:49:54 04:53:46 32° 67° (ENE) 04:57:39 437.465
SO-50 30 May 04:55:52 04:59:01 18° 33° (NNE) 05:02:11 436.795
BEESAT 30 May 04:58:56 05:00:21 11° 273° (W) 05:01:46 436.000
CUBESAT XI-V 30 May 04:59:36 05:04:19 83° 256° (WSW) 05:09:03 437.345
ITAMSAT 1 30 May 05:06:15 05:11:28 71° 288° (WNW) 05:16:40 435.822/435.867
AO-85 30 May 05:25:03 05:28:52 38° 313° (NW) 05:32:35 145.980
RS-15 30 May 05:35:23 05:46:32 37° 339° (NNW) 05:57:41 29.354- 29.394
BEESAT 2 30 May 05:38:47 05:42:35 46° 120° (ESE) 05:46:28 435.950
DOVE 4 30 May 05:43:56 05:45:15 11° 89° (E) 05:46:35 437.250
BEESAT 3 30 May 05:50:03 05:53:57 54° 310° (NW) 05:57:54 437.485
AO-7 30 May 05:53:59 06:02:09 60° 296° (WNW) 06:10:18 .
PCSat 30 May 05:58:28 05:59:50 11° 259° (W) 06:01:10 145.827
O/OREOS (USA 219) 30 May 06:02:16 06:04:00 12° 316° (NW) 06:05:45 437.305
KKS-1 30 May 06:07:07 06:10:24 20° 267° (W) 06:13:42 437.445
STRAND 1 30 May 06:19:35 06:23:04 19° 59° (ENE) 06:26:33 437.568
LilacSat-2 30 May 06:20:20 06:22:35 15° 91° (E) 06:24:49 437.200
STARS 30 May 06:26:24 06:30:07 27° 265° (W) 06:33:51 437.465
SO-50 30 May 06:35:34 06:40:07 89° 54° (NE) 06:44:39 436.795
ITAMSAT 1 30 May 06:48:08 06:50:00 12° 307° (NW) 06:51:53 435.822/435.867
XW-2D 30 May 06:48:56 06:52:21 29° 96° (E) 06:55:44 145.860 - 145.880
NUDT-PHONESAT 30 May 06:53:38 06:56:49 25° 95° (E) 06:59:57 437.300
XW-2B 30 May 06:56:54 07:00:28 35° 97° (E) 07:03:59 145.730 - 145.750
XW-2F 30 May 07:06:32 07:10:13 43° 98° (E) 07:13:52 145.980 - 146.000
KAITUO 1B 30 May 07:07:29 07:11:02 36° 97° (E) 07:14:33 145.475/437.950
XW-2C 30 May 07:10:36 07:14:24 51° 100° (E) 07:18:09 145.795 - 145.815
HO-68 30 May 07:16:39 07:21:19 18° 88° (E) 07:25:57 435.675
BEESAT 2 30 May 07:17:14 07:20:33 24° 319° (NW) 07:23:54 435.950
M-CUBED/EXP-1 PRIME 30 May 07:18:55 07:21:01 14° 58° (ENE) 07:23:03 437.505
DOVE 4 30 May 07:19:15 07:23:25 72° 286° (WNW) 07:27:44 437.250
CUTE-I 30 May 07:29:18 07:34:37 63° 101° (ESE) 07:39:55 437.470
BEESAT 3 30 May 07:30:58 07:32:26 12° 331° (NNW) 07:33:54 437.485
CUTE 1.7 + AOD 2 30 May 07:39:56 07:42:50 18° 91° (E) 07:45:42 437.475
AO-7 30 May 07:48:24 07:53:16 17° 319° (NW) 07:58:09 .
RS-15 30 May 07:52:39 08:03:33 34° 13° (NNE) 08:14:10 29.354- 29.394
LilacSat-2 30 May 07:53:22 07:57:07 47° 288° (WNW) 08:00:49 437.200
NO-84 30 May 07:54:45 07:58:53 42° 136° (SE) 08:02:59 435.350 FM
XW-2A 30 May 07:55:22 07:57:50 18° 93° (E) 08:00:17 145.665 - 145.685
STRAND 1 30 May 07:56:39 08:01:43 68° 257° (WSW) 08:06:51 437.568
SO-50 30 May 08:18:11 08:19:53 12° 252° (WSW) 08:21:36 436.795
SEEDS 30 May 08:20:52 08:24:36 30° 95° (E) 08:28:18 437.485
XW-2D 30 May 08:23:19 08:26:25 23° 293° (WNW) 08:29:29 145.860 - 145.880
NUDT-PHONESAT 30 May 08:27:28 08:30:39 26° 292° (WNW) 08:33:49 437.300
ZACube-1 30 May 08:30:11 08:31:46 12° 87° (E) 08:33:22 437.345
XW-2B 30 May 08:31:34 08:34:25 20° 295° (WNW) 08:37:17 145.730 - 145.750
XW-2F 30 May 08:41:33 08:44:01 17° 296° (WNW) 08:46:29 145.980 - 146.000
KAITUO 1B 30 May 08:42:05 08:44:48 19° 295° (WNW) 08:47:29 145.475/437.950
UNISAT 6 30 May 08:45:37 08:46:44 11° 57° (ENE) 08:47:51 437.425
XW-2C 30 May 08:46:00 08:48:11 15° 297° (WNW) 08:50:21 145.795 - 145.815
M-CUBED/EXP-1 PRIME 30 May 08:51:04 08:55:07 62° 252° (WSW) 08:58:53 437.505
CUBEBUG 2 30 May 08:58:00 09:02:36 59° 100° (E) 09:07:15 437.445
FO-29 30 May 08:58:38 09:02:23 20° 58° (ENE) 09:06:17 435.910
UWE-3 30 May 08:59:59 09:04:20 39° 97° (E) 09:08:41 435.000/436.395/437.385
HO-68 30 May 09:02:44 09:10:00 89° 106° (ESE) 09:17:13 435.675
AAUSAT CUBESAT 2 30 May 09:08:14 09:12:14 46° 99° (E) 09:16:11 437.432
CUTE-I 30 May 09:10:17 09:14:12 21° 300° (WNW) 09:18:07 437.470
PRISM 30 May 09:12:31 09:15:47 23° 65° (ENE) 09:19:04 437.425
CUTE 1.7 + AOD 2 30 May 09:14:49 09:18:55 47° 289° (WNW) 09:22:59 437.475
Oscar 11 30 May 09:16:38 09:20:09 23° 93° (E) 09:23:39 .
XW-2A 30 May 09:27:35 09:30:38 29° 290° (WNW) 09:33:40 145.665 - 145.685
NO-84 30 May 09:32:19 09:36:32 46° 333° (NNW) 09:40:37 435.350 FM
TIGRISAT 30 May 09:45:49 09:49:46 37° 69° (ENE) 09:53:50 435.000
AO-73 30 May 09:47:33 09:52:06 62° 100° (E) 09:56:38 145.935
SEEDS 30 May 09:56:39 10:00:13 27° 293° (WNW) 10:03:44 437.485
ZACube-1 30 May 10:04:01 10:08:38 82° 282° (WNW) 10:13:12 437.345
RS-15 30 May 10:06:49 10:19:04 64° 45° (NE) 10:30:43 29.354- 29.394
UNISAT 6 30 May 10:18:22 10:22:41 86° 72° (ENE) 10:27:07 437.425
AIST 2D 30 May 10:21:03 10:21:42 10° 62° (ENE) 10:22:21 435.315
DELFI C3 30 May 10:25:29 10:29:05 33° 97° (E) 10:32:38 145.870
AO-85 30 May 10:35:10 10:35:27 10° 27° (NNE) 10:35:44 145.980
CUBEBUG 2 30 May 10:35:40 10:38:47 18° 297° (WNW) 10:41:57 437.445
UWE-3 30 May 10:36:48 10:40:36 26° 294° (WNW) 10:44:26 435.000/436.395/437.385
FO-29 30 May 10:41:50 10:46:57 62° 258° (WSW) 10:52:24 435.910
NANOSAT C BR1 30 May 10:42:17 10:43:39 11° 59° (ENE) 10:45:03 145.865
AAUSAT CUBESAT 2 30 May 10:44:32 10:47:21 18° 296° (WNW) 10:50:09 437.432
PRISM 30 May 10:47:08 10:50:54 34° 262° (W) 10:54:41 437.425
POLYITAN 1 30 May 10:49:37 10:52:02 15° 61° (ENE) 10:54:26 437.675
DUCHIFAT 1 30 May 10:50:16 10:52:02 12° 59° (ENE) 10:53:48 145.980
HO-68 30 May 10:51:37 10:56:51 22° 308° (NW) 11:02:04 435.675
Oscar 11 30 May 10:52:22 10:56:23 36° 291° (WNW) 11:00:21 .
QB50P2 30 May 10:57:50 11:00:50 19° 63° (ENE) 11:03:51 145.880/145.840
EO-88 30 May 11:02:04 11:05:44 65° 101° (E) 11:09:24 145.990 - 145.960
NO-84 30 May 11:11:24 11:14:54 24° 354° (N) 11:18:15 435.350 FM
TIGRISAT 30 May 11:23:09 11:26:35 23° 267° (W) 11:30:05 435.000
YUBILEINY 30 May 11:24:09 11:32:14 37° 68° (ENE) 11:40:14 435.215
AO-73 30 May 11:24:56 11:27:51 17° 298° (WNW) 11:30:47 145.935
LO-87 30 May 11:32:12 11:34:51 19° 94° (E) 11:37:30 145.935 - 145.965
EO-79 30 May 11:32:23 11:36:16 38° 69° (ENE) 11:40:11 145.935-145.965
ZACube-1 30 May 11:42:44 11:44:08 11° 302° (WNW) 11:45:33 437.345
ESTCUBE 1 30 May 11:45:45 11:48:57 19° 92° (E) 11:52:08 437.505/2401.250
AIST 2D 30 May 11:50:52 11:54:23 65° 259° (W) 11:57:56 435.315
DELFI C3 30 May 12:00:39 12:03:40 21° 294° (WNW) 12:06:40 145.870
Oscar 19 30 May 12:01:06 12:03:13 13° 54° (NE) 12:05:20 437.125/150
AO-85 30 May 12:12:56 12:16:48 45° 49° (NE) 12:20:50 145.980
Gurwin Techsat 1B 30 May 12:13:46 12:14:24 10° 52° (NE) 12:15:02 435.225
NANOSAT C BR1 30 May 12:14:33 12:18:43 84° 257° (WSW) 12:22:57 145.865
BEESAT 2 30 May 12:17:33 12:19:28 13° 31° (NNE) 12:21:23 435.950
RS-15 30 May 12:19:57 12:31:15 48° 250° (WSW) 12:42:02 29.354- 29.394
DUCHIFAT 1 30 May 12:22:56 12:27:06 76° 258° (WSW) 12:31:19 145.980
POLYITAN 1 30 May 12:23:11 12:27:20 61° 259° (W) 12:31:32 437.675
VELOX 1 30 May 12:24:28 12:26:10 12° 89° (E) 12:27:52 145.980
BUGSAT 1 30 May 12:24:41 12:28:20 35° 69° (ENE) 12:32:02 437.445
BEESAT 3 30 May 12:27:19 12:30:45 26° 42° (NE) 12:34:10 437.485
QB50P2 30 May 12:32:17 12:36:19 45° 261° (W) 12:40:24 145.880/145.840
EO-88 30 May 12:37:42 12:38:54 11° 299° (WNW) 12:40:06 145.990 - 145.960
O/OREOS (USA 219) 30 May 12:47:40 12:51:56 39° 58° (ENE) 12:56:09 437.305
NO-84 30 May 12:49:51 12:53:28 28° 15° (NNE) 12:56:51 435.350 FM
LO-87 30 May 13:05:12 13:08:20 29° 290° (WNW) 13:11:28 145.935 - 145.965
EO-79 30 May 13:08:58 13:12:10 21° 267° (W) 13:15:24 145.935-145.965
AO-7 30 May 13:15:01 13:19:51 17° 41° (NE) 13:24:42 .
YUBILEINY 30 May 13:20:51 13:29:24 56° 270° (W) 13:37:56 435.215
SPROUT 30 May 13:20:52 13:25:02 47° 99° (E) 13:29:10 437.525
ESTCUBE 1 30 May 13:21:40 13:26:01 48° 289° (WNW) 13:30:20 437.505/2401.250
Oscar 19 30 May 13:36:29 13:41:40 76° 73° (ENE) 13:46:53 437.125/150
50 SAT 30 May 13:46:54 13:50:10 44° 99° (E) 13:53:25 437.505
Gurwin Techsat 1B 30 May 13:48:04 13:53:16 60° 71° (ENE) 13:58:31 435.225
AO-85 30 May 13:53:52 13:56:57 21° 245° (WSW) 14:00:09 145.980
BEESAT 2 30 May 13:53:59 13:58:03 63° 52° (NE) 14:02:03 435.950
VELOX 1 30 May 13:58:45 14:03:08 74° 287° (WNW) 14:07:30 145.980
BUGSAT 1 30 May 14:00:46 14:03:48 21° 266° (W) 14:06:54 437.445
UKube-1 30 May 14:04:08 14:08:00 32° 97° (E) 14:11:51 .
BEESAT 3 30 May 14:04:41 14:08:28 40° 241° (WSW) 14:12:12 437.485
DX 1 30 May 14:20:21 14:24:40 68° 102° (ESE) 14:28:59 434.975-435.025
NO-84 30 May 14:27:30 14:31:30 90° 220° (SW) 14:35:07 435.350 FM
O/OREOS (USA 219) 30 May 14:27:30 14:31:07 24° 257° (WSW) 14:34:42 437.305
ITAMSAT 1 30 May 14:48:05 14:52:40 33° 65° (ENE) 14:57:16 435.822/435.867
SPROUT 30 May 14:57:36 15:00:36 19° 297° (WNW) 15:03:37 437.525
AO-7 30 May 15:02:54 15:10:58 60° 64° (ENE) 15:19:07 .
BEESAT 30 May 15:15:34 15:18:56 19° 92° (E) 15:22:17 436.000
Oscar 19 30 May 15:18:33 15:21:33 15° 271° (W) 15:24:34 437.125/150
50 SAT 30 May 15:21:02 15:22:40 13° 297° (WNW) 15:24:18 437.505
YUBILEINY 30 May 15:22:30 15:24:04 11° 292° (WNW) 15:25:38 435.215
Gurwin Techsat 1B 30 May 15:29:46 15:33:37 20° 269° (W) 15:37:30 435.225
BEESAT 2 30 May 15:32:59 15:35:20 15° 249° (WSW) 15:37:39 435.950
UKube-1 30 May 15:40:17 15:43:56 27° 294° (WNW) 15:47:33 .
MOZHAYETS 4 30 May 15:56:21 16:00:20 27° 94° (E) 16:04:17
DX 1 30 May 15:57:59 16:00:20 14° 300° (WNW) 16:02:42 434.975-435.025
NO-84 30 May 16:06:35 16:08:24 13° 236° (SW) 16:10:10 435.350 FM
ITUPSAT 1 30 May 16:21:39 16:26:30 76° 103° (ESE) 16:31:19 437.325
ITAMSAT 1 30 May 16:27:20 16:32:04 36° 263° (W) 16:36:50 435.822/435.867
DOVE 4 30 May 16:51:15 16:54:04 17° 63° (ENE) 16:56:50 437.250
BEESAT 30 May 16:52:21 16:57:03 55° 289° (WNW) 17:01:43 436.000
CUBESAT XI-V 30 May 16:54:22 16:57:51 21° 92° (E) 17:01:18 437.345
AO-7 30 May 16:56:46 17:04:08 35° 264° (W) 17:11:36 .
LilacSat-2 30 May 17:05:39 17:07:05 12° 61° (ENE) 17:08:31 437.200
CUTE-I 30 May 17:15:38 17:19:28 21° 60° (ENE) 17:23:19 437.470
XW-2D 30 May 17:32:45 17:35:43 22° 66° (ENE) 17:38:41 145.860 - 145.880
MOZHAYETS 4 30 May 17:33:18 17:37:32 35° 292° (WNW) 17:41:45
NUDT-PHONESAT 30 May 17:35:46 17:38:18 18° 65° (ENE) 17:40:51 437.300
XW-2B 30 May 17:40:35 17:43:45 25° 67° (ENE) 17:46:56 145.730 - 145.750
HO-68 30 May 17:48:49 17:53:46 20° 51° (NE) 17:58:42 435.675
XW-2F 30 May 17:49:41 17:53:02 30° 69° (ENE) 17:56:26 145.980 - 146.000
KAITUO 1B 30 May 17:49:54 17:53:02 25° 68° (ENE) 17:56:13 145.475/437.950
KKS-1 30 May 17:53:53 17:58:18 62° 102° (ESE) 18:02:42 437.445
XW-2C 30 May 17:54:04 17:57:34 35° 70° (ENE) 18:01:07 145.795 - 145.815
ITUPSAT 1 30 May 18:00:55 18:03:43 16° 302° (WNW) 18:06:32 437.325
STARS 30 May 18:12:17 18:16:28 42° 99° (E) 18:20:40 437.465
Tancredo 1 30 May 18:18:13 18:18:33 10° 132° (SE) 18:18:52 437.200
DOVE 4 30 May 18:27:03 18:31:26 54° 260° (W) 18:35:39 437.250
CUBESAT XI-V 30 May 18:31:01 18:35:28 46° 289° (WNW) 18:39:52 437.345
XW-2A 30 May 18:31:21 18:31:36 10° 62° (ENE) 18:31:52 145.665 - 145.685
CUTE 1.7 + AOD 2 30 May 18:35:03 18:37:59 18° 63° (ENE) 18:40:57 437.475
LilacSat-2 30 May 18:36:58 18:40:49 69° 259° (W) 18:44:42 437.200
CUTE-I 30 May 18:53:46 18:59:02 64° 258° (WSW) 19:04:20 437.470
PCSat 30 May 18:55:40 19:01:00 63° 118° (ESE) 19:06:23 145.827
XW-2D 30 May 19:06:17 19:09:43 32° 263° (W) 19:13:14 145.860 - 145.880
NUDT-PHONESAT 30 May 19:08:25 19:11:56 38° 262° (W) 19:15:29 437.300
XW-2B 30 May 19:14:34 19:17:51 27° 265° (W) 19:21:11 145.730 - 145.750
SEEDS 30 May 19:14:41 19:18:22 29° 68° (ENE) 19:22:03 437.485
KAITUO 1B 30 May 19:23:45 19:26:59 26° 265° (W) 19:30:14 145.475/437.950
XW-2F 30 May 19:24:11 19:27:12 22° 266° (W) 19:30:16 145.980 - 146.000
ZACube-1 30 May 19:28:39 19:30:30 13° 59° (ENE) 19:32:22 437.345
XW-2C 30 May 19:29:06 19:31:53 19° 267° (W) 19:34:41 145.795 - 145.815
ISS 30 May 19:31:09 19:34:07 31° 141° (SE) 19:37:06 437.550
KKS-1 30 May 19:31:39 19:34:23 16° 300° (WNW) 19:37:08 437.445
HO-68 30 May 19:33:19 19:40:30 84° 71° (ENE) 19:47:45 435.675
STARS 30 May 19:49:12 19:52:34 22° 296° (WNW) 19:55:56 437.465
Tancredo 1 30 May 19:50:42 19:53:45 69° 149° (SSE) 19:56:49 437.200
CUBEBUG 2 30 May 19:58:25 20:02:33 62° 73° (ENE) 20:06:50 437.445
UWE-3 30 May 19:59:18 20:03:15 39° 70° (ENE) 20:07:20 435.000/436.395/437.385
AAUSAT CUBESAT 2 30 May 20:00:18 20:04:15 42° 71° (ENE) 20:08:12 437.432
XW-2A 30 May 20:00:31 20:03:50 60° 259° (W) 20:07:13 145.665 - 145.685
STRAND 1 30 May 20:04:44 20:09:25 34° 96° (E) 20:14:04 437.568
CUTE 1.7 + AOD 2 30 May 20:09:18 20:13:27 50° 261° (W) 20:17:40 437.475
Oscar 11 30 May 20:13:41 20:17:14 25° 66° (ENE) 20:20:49 .
PCSat 30 May 20:40:14 20:44:49 27° 318° (NW) 20:49:25 145.827
AO-73 30 May 20:45:05 20:49:17 62° 74° (ENE) 20:53:39 145.935
SEEDS 30 May 20:50:19 20:54:00 28° 265° (W) 20:57:43 437.485
SO-50 30 May 20:53:51 20:56:31 15° 110° (ESE) 20:59:10 436.795
ZACube-1 30 May 21:01:51 21:06:07 80° 257° (WSW) 21:10:32 437.345
ISS 30 May 21:07:17 21:10:31 51° 340° (NNW) 21:13:45 437.550
DELFI C3 30 May 21:13:08 21:16:33 28° 68° (ENE) 21:19:58 145.870
HO-68 30 May 21:24:01 21:29:03 20° 271° (W) 21:34:08 435.675
Tancredo 1 30 May 21:26:51 21:29:40 32° 348° (NNW) 21:32:30 437.200
UWE-3 30 May 21:36:38 21:39:53 21° 268° (W) 21:43:12 435.000/436.395/437.385
AAUSAT CUBESAT 2 30 May 21:36:53 21:39:53 19° 268° (W) 21:42:54 437.432
CUBEBUG 2 30 May 21:37:36 21:39:39 13° 272° (W) 21:41:44 437.445
EO-88 30 May 21:41:58 21:45:23 39° 71° (ENE) 21:48:51 145.990 - 145.960
STRAND 1 30 May 21:43:56 21:48:34 34° 294° (WNW) 21:53:10 437.568
